This is the latest recevied weather packets stored in our database for station/object KA8OAD-10. If no packets are shown the sender has not sent any weather packets the latest 10 day(s).
| Time | Temp. | Humidity | Pressure | Rain* | Wind** | Luminosity | Snow |
|---|---|---|---|---|---|---|---|
| 1777850852 | 14.44° C | 43% | 1010.7 hPa | 0 mm | - | 33 W/m² | - |
| 1777850552 | 14.44° C | 43% | 1010.7 hPa | 0 mm | - | 35 W/m² | - |
| 1777849650 | 14.44° C | 43% | 1010.8 hPa | 0 mm | - | 26 W/m² | - |
| 1777849350 | 14.44° C | 43% | 1010.8 hPa | 0 mm | - | 33 W/m² | - |
| 1777848753 | 14.44° C | 42% | 1010.9 hPa | 0 mm | - | 60 W/m² | - |
| 1777848453 | 14.44° C | 42% | 1010.9 hPa | 0 mm | - | 56 W/m² | - |
| 1777848152 | 14.44° C | 42% | 1010.9 hPa | 0 mm | - | 56 W/m² | - |
| 1777847251 | 15° C | 42% | 1011 hPa | 0 mm | - | 65 W/m² | - |
| 1777846053 | 15° C | 40% | 1011 hPa | 0 mm | - | 62 W/m² | - |
| 1777845752 | 15.56° C | 41% | 1011.1 hPa | 0 mm | - | 63 W/m² | - |
| 1777844851 | 15.56° C | 40% | 1011.1 hPa | 0 mm | - | 98 W/m² | - |
| 1777844550 | 15.56° C | 41% | 1011.1 hPa | 0 mm | - | 104 W/m² | - |
| 1777843352 | 15.56° C | 41% | 1011.1 hPa | 0 mm | - | 186 W/m² | - |
| 1777842450 | 16.11° C | 39% | 1011 hPa | 0 mm | - | 142 W/m² | - |
| 1777842150 | 16.11° C | 40% | 1011 hPa | 0 mm | - | 146 W/m² | - |
| 1777841553 | 16.11° C | 41% | 1011.1 hPa | 0 mm | - | 132 W/m² | - |
| 1777841252 | 16.11° C | 39% | 1011.1 hPa | 0 mm | - | 146 W/m² | - |
| 1777840951 | 16.11° C | 40% | 1011.1 hPa | 0 mm | - | 132 W/m² | - |
| 1777840050 | 16.11° C | 40% | 1011.3 hPa | 0 mm | - | 179 W/m² | - |
| 1777839753 | 16.11° C | 40% | 1011.3 hPa | 0 mm | - | 200 W/m² | - |
| 1777839152 | 16.11° C | 39% | 1011.3 hPa | 0 mm | - | 141 W/m² | - |
| 1777838852 | 16.11° C | 40% | 1011.6 hPa | 0 mm | - | 162 W/m² | - |
| 1777837653 | 16.67° C | 38% | 1011.9 hPa | 0 mm | - | 162 W/m² | - |
| 1777836150 | 17.22° C | 37% | 1012.3 hPa | 0 mm | - | 193 W/m² | - |
| 1777835553 | 17.22° C | 36% | 1012.4 hPa | 0 mm | - | 167 W/m² | - |
* Rain latest hour (hover to see other rain measurements)
** Current wind speed in m/s (hover to see current wind gust speed)